Regional Weather Roundup
Issued by NWS Goodland, KS

Home | Current Version | Previous Version | Graphics & Text | Print | Product List | Glossary On
Versions: 1 2 3 4 5 6 7 8 9 10 11 12 13 14 15 16 17 18 19 20 21 22 23 24 25 26 27 28 29 30 31 32 33 34 35 36 37 38 39 40 41 42 43 44 45 46 47 48 49 50
000
ASUS43 KGLD 220108
RWRGLD

GOODLAND FORECAST AREA HOURLY WEATHER ROUNDUP
NATIONAL WEATHER SERVICE GOODLAND KS
600 PM MST SUN DEC 21 2014

...OFFICIAL OBSERVATIONS...

CITY           SKY/WX    TMP DP  RH WIND       PRES   REMARKS
GOODLAND KS    CLOUDY    44  32  62 SW5       29.54F
HILL CITY KS   CLOUDY    42  37  82 S8        29.58R
IMPERIAL NEB   CLOUDY    37  31  78 N3        29.51S
MCCOOK NEB     CLOUDY    37  34  89 S6        29.54S
AKRON CO       CLOUDY    42  30  62 W15G25    29.53S
BURLINGTON CO  CLOUDY    43  32  65 NW9       29.55S
LIMON CO       CLOUDY    44  27  51 N12       29.59R
$$

...UNOFFICIAL OBSERVATIONS...

CITY           SKY/WX    TMP DP  RH WIND       PRES   REMARKS
COLBY KS       CLOUDY    37  37 100 S9        29.55S
GOVE KS          N/A     41  32  70 MISG        N/A
NORTON KS      MOCLDY    39  32  75 SE7       29.56S
TRIBUNE KS     CLOUDY    43  37  81 W5        29.59R
KIT CARSON CO    N/A     38  33  82 MISG        N/A
YUMA CO          N/A     39  30  71 N7          N/A
$$


USA.gov is the U.S. government's official web portal to all federal, state and local government web resources and services.